[Iaude] MPEC X231: 2023 XL10 [a=2.37,e=0.59,i=5.9,H=22.0]

mpec at marsden.cfa.harvard.edu mpec at marsden.cfa.harvard.edu
Tue Dec 12 00:28:10 EST 2023


M.P.E.C. 2023-X231                            Issued 2023 December 12, 05:26 UT

     The Minor Planet Electronic Circulars contain information on unusual
         minor planets, routine data on comets and natural satellites,
         and occasional editorial announcements.  They are published
    on behalf of Division F of the International Astronomical Union by the
          Minor Planet Center, Smithsonian Astrophysical Observatory,
                          Cambridge, MA 02138, U.S.A.
			  
             Prepared using the Tamkin Foundation Computer Network

                              MPC at CFA.HARVARD.EDU
            URL https://www.minorplanetcenter.net/    ISSN 1523-6714

                                   2023 XL10                                    


Observations:
     K23X10L*1C2023 12 09.14283500 39 54.176-19 05 01.32         20.71GVEX231G96
     K23X10L 1C2023 12 09.14802700 39 56.977-19 04 33.06         20.58GVEX231G96
     K23X10L 1C2023 12 09.15321300 39 59.821-19 04 05.27         20.75GVEX231G96
     K23X10L 1C2023 12 09.15840100 40 02.640-19 03 37.51         21.28GVEX231G96
     K23X10L KC2023 12 09.19682800 40 23.419-19 00 09.68         20.59GVEX231I52
     K23X10L KC2023 12 09.19983000 40 25.050-18 59 53.48         20.67GVEX231I52
     K23X10L KC2023 12 09.20284000 40 26.659-18 59 37.03         20.48GVEX231I52
     K23X10L KC2023 12 09.20585200 40 28.304-18 59 21.05         20.12GVEX231I52
     K23X10L |C2023 12 10.03682000 48 11.810-17 43 18.60         20.0 GVEX231807
     K23X10L |C2023 12 10.04183000 48 14.470-17 42 51.10         20.4 GVEX231807
     K23X10L |C2023 12 10.04691200 48 17.190-17 42 23.20         20.1 GVEX231807
     K23X10L |C2023 12 10.05175000 48 19.830-17 41 56.40         20.4 GVEX231807
     K23X10L KC2023 12 10.06066500 48 26.608-17 41 54.89         20.14GVEX231I52
     K23X10L KC2023 12 10.06235800 48 27.511-17 41 45.67         20.27GVEX231I52
     K23X10L KC2023 12 10.06405000 48 28.440-17 41 35.77         20.55GVEX231I52
     K23X10L KC2023 12 10.06576100 48 29.275-17 41 26.81         20.33GVEX231I52
     K23X10L |C2023 12 12.06361001 06 41.870-14 33 58.50         20.0 GVEX231807
     K23X10L KC2023 12 12.06365401 06 42.74 -14 34 50.7          20.5 GVEX231H21
     K23X10L |C2023 12 12.06853001 06 44.450-14 33 30.40         19.9 GVEX231807
     K23X10L KC2023 12 12.06938401 06 45.76 -14 34 17.8          20.4 GVEX231H21
     K23X10L KC2023 12 12.07225101 06 47.27 -14 34 01.4          20.4 GVEX231H21
     K23X10L |C2023 12 12.07346001 06 47.020-14 33 01.80         20.2 GVEX231807
     K23X10L KC2023 12 12.18668901 07 48.173-14 23 05.50         20.12GVEX231I52
     K23X10L KC2023 12 12.19020201 07 49.984-14 22 44.76         20.14GVEX231I52
     K23X10L KC2023 12 12.19370901 07 51.820-14 22 24.92         20.21GVEX231I52
     K23X10L KC2023 12 12.19721801 07 53.666-14 22 04.76         20.50GVEX231I52

Observer details:
807 Cerro Tololo Observatory, La Serena.  Observers T. Linder, R. Holmes, L.
    Horn.  0.61-m f/11 Ritchey-Chretien + CCD.
G96 Mt. Lemmon Survey.  Observer D. Rankin.  Measurers E. C. Beshore, D. Fay,
    J. B. Fazekas, D. C. Fuls, A. R. Gibbs, A. D. Grauer, H. Groeller, J. K.
    Hogan, R. A. Kowalski, S. M. Larson, G. J. Leonard, D. Rankin, R. L.
    Seaman, F. C. Shelly, K. W. Wierzchos.  1.5-m reflector + 10K CCD.
H21 Astronomical Research Observatory, Westfield.  Observer R. Holmes.
    Measurers T. Linder, R. Holmes, L. Horn.  0.81-m f/4.0 astrograph + CCD.
I52 Steward Observatory, Mt. Lemmon Station.  Observers K. W. Wierzchos, G. J.
    Leonard.  Measurers E. C. Beshore, D. Fay, J. B. Fazekas, D. C. Fuls, A.
    R. Gibbs, A. D. Grauer, H. Groeller, J. K. Hogan, R. A. Kowalski, S. M.
    Larson, G. J. Leonard, D. Rankin, R. L. Seaman, F. C. Shelly, K. W.
    Wierzchos.  1.0-m prime focus + CCD.

Orbital elements:
2023 XL10                                                Earth MOID = 0.0783 AU
Epoch 2023 Sept. 13.0 TT = JDT 2460200.5                MPC                     
M 344.05293              (2000.0)            P               Q                  
n   0.27092640     Peri.  287.47472     +0.83937262     -0.53427358             
a   2.3653850      Node   104.92566     +0.52968294     +0.76266864             
e   0.5885902      Incl.    5.94187     +0.12202293     +0.36453845             
P   3.64           H   22.01          G   0.15           U   8                  
Residuals in seconds of arc
231209 G96  0.1-  0.4-    231210 807  0.4-  0.1+    231212 807  0.1+  0.2-
231209 G96  0.2-  0.0     231210 807  0.5-  0.0     231212 H21  0.1+  0.2+
231209 G96  0.4+  0.2-    231210 807  0.2+  0.1+    231212 H21  0.2+  0.3+
231209 G96  0.5+  0.3-    231210 I52  0.2+  0.2-    231212 807  0.1-  0.2+
231209 I52  0.0   0.1+    231210 I52  0.1+  0.2-    231212 I52  0.1+  0.5-
231209 I52  0.1+  0.0     231210 I52  0.4+  0.5+    231212 I52  0.3-  0.1+
231209 I52  0.3-  0.2+    231210 I52  0.8-  0.1+    231212 I52  0.2-  0.1-
231209 I52  0.1-  0.2-    231212 807  0.0   0.2-    231212 I52  0.1-  0.1-
231210 807  0.0   0.2+    231212 H21  0.1-  0.1-

Ephemeris:
2023 XL10                a,e,i = 2.37, 0.59, 6                   q = 0.9731
Date    TT    R. A. (2000) Decl.     Delta      r    Elong.  Phase     V
2023 11 12    21 01 59.6 -38 08 28   0.2742  0.9733    78.5    85.5    22.1
...
2023 11 27    22 48 22.4 -32 39 52   0.2071  0.9967    86.7    81.3    21.4
...
2023 12 05    00 00 58.2 -24 47 51   0.1848  1.0246    97.0    72.7    20.9
...
2023 12 11    00 57 03.0 -16 14 28   0.1802  1.0516   107.0    63.6    20.7
2023 12 12    01 06 07.8 -14 40 18   0.1807  1.0566   108.7    62.0    20.6
2023 12 13    01 15 04.7 -13 04 58   0.1815  1.0617   110.4    60.3    20.6
...
2023 12 19    02 05 10.0 -03 37 40   0.1944  1.0946   120.1    51.0    20.5
...
2023 12 27    03 00 27.1 +06 59 30   0.2310  1.1441   129.4    41.6    20.7
...
2024 01 11    04 13 05.7 +18 46 43   0.3436  1.2497   134.8    33.9    21.6

A. U. Tomatic                (C) Copyright 2023 MPC           M.P.E.C. 2023-X231




More information about the Iaude mailing list